Date_and_time,latitude,longitude,wind_speed,RelWindDirFrom,WindDirFrom,air_pressure,air_temperature,relative_humidity,Temp,platform_speed_wrt_ground,air_pressure_at_mean_sea_level,platform_orientation
2018-10-17 23:50,50.630435,-96.9807416666667,12.6,14.9,171,995.51,2.7,67,3.28,0.0,1023.27,38.0
2018-10-18 00:00,50.6304333333333,-96.9807433333333,14.1,17.1,172,995.31,2.7,68,3.28,0.0,1023.07,90.0
2018-10-18 00:00,50.630435,-96.9807433333333,14.4,14.4,175,995.24,2.6,68,3.28,0.0,1023.00,14.5
2018-10-18 00:10,50.6304366666667,-96.9807433333333,13.6,17.4,173,995.29,2.6,68,3.28,0.0,1023.04,14.5
2018-10-18 00:20,50.6304383333333,-96.980745,12.1,14.2,173,995.25,2.5,71,3.28,0.0,1023.01,14.5
2018-10-18 00:30,50.6304383333333,-96.980745,12.8,16.4,171,995.15,2.5,74,3.27,0.0,1022.92,14.5
2018-10-18 00:40,50.6304383333333,-96.9807466666667,12.7,15.3,170,995.03,2.5,77,3.26,0.0,1022.81,14.5
2018-10-18 00:50,50.6304366666667,-96.9807466666667,12.7,16.2,171,994.86,2.4,78,3.26,0.0,1022.64,14.5
2018-10-18 01:00,50.6304366666667,-96.9807483333333,13.6,16.5,173,994.68,2.3,78,3.26,0.0,1022.46,345.5
2018-10-18 01:10,50.6304366666667,-96.98075,13.8,17.3,175,994.45,2.3,76,3.26,0.0,1022.23,345.5
2018-10-18 01:20,50.6304366666667,-96.98075,15.0,17.6,177,994.14,2.2,75,3.25,0.0,1021.93,345.5
2018-10-18 01:30,50.63042,-96.9807466666667,15.0,18.4,177,993.94,2.2,75,3.26,0.0,1021.73,345.5
2018-10-18 01:40,50.6304283333333,-96.98075,14.5,17.8,176,993.79,2.1,76,3.25,0.0,1021.57,345.5
2018-10-18 01:50,50.6304316666667,-96.9807516666667,14.5,17.4,176,993.63,2.1,76,3.24,0.0,1021.41,345.5
2018-10-18 02:00,50.630435,-96.980755,14.7,17.9,176,993.43,2.1,77,3.23,0.0,1021.21,299.2
2018-10-18 02:10,50.630435,-96.9807566666667,15.0,17.6,175,993.22,2.2,77,3.23,0.0,1020.99,299.2
2018-10-18 02:20,50.630435,-96.9807566666667,14.9,17.4,176,992.94,2.2,77,3.22,0.0,1020.71,299.2
2018-10-18 02:30,50.630435,-96.9807566666667,14.6,18.0,177,992.69,2.2,77,3.22,0.0,1020.44,299.2
2018-10-18 02:40,50.6304333333333,-96.9807566666667,13.9,17.8,177,992.53,2.3,77,3.21,0.0,1020.29,299.2
2018-10-18 02:50,50.6304333333333,-96.9807566666667,14.7,18.6,181,992.25,2.4,76,3.20,0.0,1020.00,299.2
2018-10-18 03:00,50.6304333333333,-96.9807566666667,15.2,18.5,184,991.90,2.5,76,3.20,0.0,1019.63,240.8
2018-10-18 03:10,50.63042,-96.980725,14.9,21.5,186,991.74,2.6,75,3.19,0.0,1019.47,240.8
2018-10-18 03:20,50.63043,-96.9807516666667,15.6,20.0,187,991.53,2.7,75,3.19,0.0,1019.25,240.8
2018-10-18 03:30,50.630425,-96.980745,15.9,21.4,188,991.25,2.7,75,3.18,0.0,1018.96,240.8
2018-10-18 03:40,50.6304333333333,-96.9807516666667,16.4,21.5,189,990.92,2.7,75,3.18,0.0,1018.62,240.8
2018-10-18 03:50,50.6304333333333,-96.9807466666667,16.6,21.2,190,990.65,2.6,76,3.18,0.0,1018.35,240.8
2018-10-18 04:00,50.6304333333333,-96.98075,16.6,23.6,190,990.33,2.7,76,3.18,0.0,1018.01,142.0
2018-10-18 04:10,50.6304333333333,-96.9807466666667,17.4,22.6,189,990.08,2.9,75,3.18,0.0,1017.75,142.0
2018-10-18 04:20,50.6304266666667,-96.9807483333333,18.1,26.4,192,989.84,3.0,73,3.18,0.0,1017.49,142.0
2018-10-18 04:30,50.63044,-96.980755,18.1,22.1,192,989.57,3.2,73,3.18,0.0,1017.20,142.0
2018-10-18 04:40,50.63044,-96.9807616666667,18.3,24.6,192,989.29,3.3,72,3.18,0.0,1016.90,142.0
2018-10-18 04:50,50.6304366666667,-96.98076,19.0,25.4,193,989.03,3.4,72,3.17,0.0,1016.62,142.0
2018-10-18 05:00,50.630435,-96.9807583333333,18.5,24.6,194,988.93,3.6,71,3.18,0.0,1016.51,0.0
2018-10-18 05:10,50.630435,-96.9807583333333,17.5,24.3,194,988.87,3.9,69,3.19,0.0,1016.43,0.0
2018-10-18 05:20,50.630435,-96.9807583333333,17.2,23.3,194,988.75,4.1,69,3.20,0.0,1016.29,0.0
2018-10-18 05:30,50.630435,-96.9807566666667,16.6,21.4,197,988.67,4.2,69,3.22,0.0,1016.21,0.0
2018-10-18 05:40,50.6304366666667,-96.9807566666667,15.8,21.3,197,988.45,4.1,69,3.25,0.0,1015.98,0.0
2018-10-18 05:50,50.63043,-96.980735,15.5,19.8,198,988.30,4.1,69,3.26,0.0,1015.83,0.0
2018-10-18 06:00,50.6304316666667,-96.9807466666667,15.8,22.5,196,988.06,4.0,70,3.25,0.0,1015.58,90.0
2018-10-18 06:10,50.6304366666667,-96.9807416666667,15.8,21.3,197,987.82,4.0,70,3.24,0.0,1015.32,90.0
2018-10-18 06:20,50.6304333333333,-96.98075,13.8,19.0,199,987.75,4.0,71,3.24,0.0,1015.24,90.0
2018-10-18 06:30,50.6304333333333,-96.9807516666667,13.5,18.7,201,987.81,4.0,71,3.26,0.0,1015.30,90.0
2018-10-18 06:40,50.6304316666667,-96.98075,12.2,19.2,205,987.81,4.0,71,3.25,0.0,1015.29,90.0
2018-10-18 06:50,50.6304266666667,-96.9807216666667,13.7,18.4,203,987.53,3.9,72,3.25,0.0,1015.00,90.0
2018-10-18 07:00,50.630425,-96.9807316666667,14.3,18.7,200,987.31,3.9,73,3.24,0.0,1014.76,111.5
2018-10-18 07:10,50.6304283333333,-96.9807366666667,13.9,20.6,201,987.10,3.9,74,3.23,0.0,1014.54,111.5
2018-10-18 07:20,50.6304266666667,-96.98074,13.9,20.6,200,986.93,3.8,74,3.22,0.0,1014.36,111.5
2018-10-18 07:30,50.6304283333333,-96.9807416666667,14.2,21.1,204,986.89,3.9,74,3.21,0.0,1014.31,111.5
2018-10-18 07:40,50.6304283333333,-96.9807416666667,13.4,18.4,204,986.84,4.0,74,3.20,0.0,1014.26,111.5
2018-10-18 07:50,50.63043,-96.9808083333333,12.7,17.9,205,986.79,4.0,75,3.19,0.0,1014.21,111.5
2018-10-18 08:00,50.630415,-96.9807266666667,13.0,19.2,205,986.67,3.9,76,3.19,0.0,1014.09,143.4
2018-10-18 08:10,50.6304266666667,-96.9807483333333,12.3,17.4,207,986.52,3.8,77,3.19,0.0,1013.94,143.4
2018-10-18 08:20,50.6304266666667,-96.9807433333333,12.7,16.8,210,986.47,3.7,78,3.18,0.0,1013.90,143.4
2018-10-18 08:30,50.630425,-96.98074,12.0,15.3,207,986.43,3.5,79,3.17,0.0,1013.87,143.4
2018-10-18 08:40,50.630425,-96.9807366666667,11.6,15.6,208,986.31,3.4,81,3.17,0.0,1013.76,143.4
2018-10-18 08:50,50.6304266666667,-96.9807483333333,11.4,16.0,211,986.18,3.3,81,3.17,0.0,1013.63,143.4
2018-10-18 09:00,50.63042,-96.980745,12.0,15.5,210,986.00,3.3,82,3.16,0.0,1013.45,360.0
2018-10-18 09:10,50.6304233333333,-96.980745,11.6,15.5,210,985.90,3.2,83,3.15,0.0,1013.35,360.0
2018-10-18 09:20,50.6304266666667,-96.9807466666667,10.7,13.4,210,985.87,3.1,84,3.14,0.0,1013.32,360.0
2018-10-18 09:30,50.6304333333333,-96.9807466666667,10.1,13.8,214,985.89,3.0,85,3.12,0.0,1013.34,360.0
2018-10-18 09:40,50.6304366666667,-96.980755,10.9,14.5,211,985.79,2.9,85,3.12,0.0,1013.25,360.0
2018-10-18 09:50,50.63044,-96.980755,10.6,13.1,209,985.69,2.8,86,3.11,0.0,1013.15,360.0
2018-10-18 10:00,50.6304366666667,-96.98075,9.1,11.8,208,985.64,2.6,87,3.11,0.0,1013.11,304.8
2018-10-18 10:10,50.6304383333333,-96.98075,9.1,11.5,206,985.48,2.6,88,3.12,0.0,1012.95,304.8
2018-10-18 10:20,50.6304383333333,-96.9807516666667,8.3,11.1,208,985.41,2.5,88,3.12,0.0,1012.90,304.8
2018-10-18 10:30,50.6304383333333,-96.9807516666667,8.6,10.9,210,985.35,2.6,88,3.12,0.0,1012.84,304.8
2018-10-18 10:40,50.6304383333333,-96.9807516666667,8.2,10.5,212,985.32,2.6,87,3.12,0.0,1012.80,304.8
2018-10-18 10:50,50.6304716666667,-96.9807766666667,7.9,10.2,210,985.31,2.6,87,3.12,0.0,1012.80,304.8
2018-10-18 11:00,50.630415,-96.980755,7.4,9.5,213,985.32,2.7,86,3.11,0.0,1012.82,270.0
2018-10-18 11:10,50.63042,-96.98075,7.5,9.3,215,985.31,3.0,84,3.11,0.0,1012.79,270.0
2018-10-18 11:20,50.6304216666667,-96.9807516666667,7.0,8.9,220,985.34,3.3,83,3.11,0.0,1012.81,270.0
2018-10-18 11:30,50.6304233333333,-96.9807516666667,7.1,9.9,221,985.30,3.7,81,3.11,0.0,1012.76,270.0
2018-10-18 11:40,50.6304233333333,-96.98075,6.6,8.6,222,985.28,4.0,79,3.11,0.0,1012.73,270.0
2018-10-18 11:50,50.6304233333333,-96.9807516666667,6.1,7.9,218,985.23,4.1,78,3.11,0.0,1012.68,270.0
2018-10-18 12:00,50.6304233333333,-96.98075,6.4,7.7,201,985.11,3.7,82,3.11,0.0,1012.57,347.4
2018-10-18 12:10,50.6304233333333,-96.98075,5.9,7.1,209,985.08,3.2,83,3.09,0.0,1012.57,347.4
2018-10-18 12:20,50.6304266666667,-96.980745,6.2,8.3,215,985.02,3.5,80,3.08,0.0,1012.50,347.4
2018-10-18 12:30,50.6304283333333,-96.98077,6.7,8.5,218,984.94,3.6,79,3.09,0.0,1012.40,347.4
2018-10-18 12:40,50.630425,-96.9807333333333,7.3,8.9,215,984.85,3.6,79,3.09,0.0,1012.31,347.4
2018-10-18 12:50,50.6304183333333,-96.9807666666667,6.1,7.4,219,984.86,3.6,78,3.10,0.0,1012.31,347.4
2018-10-18 13:00,50.6304216666667,-96.9807566666667,6.4,8.4,217,984.81,3.6,78,3.11,0.0,1012.24,203.5
2018-10-18 13:10,50.6304216666667,-96.9807516666667,7.9,10.8,218,984.71,3.8,77,3.08,0.0,1012.12,203.5
2018-10-18 13:20,50.6304216666667,-96.9807533333333,8.0,10.5,216,984.61,4.0,76,3.07,0.0,1011.99,203.5
2018-10-18 13:30,50.6304216666667,-96.980755,8.1,10.4,215,984.59,4.0,76,3.06,0.0,1011.96,203.5
2018-10-18 13:40,50.6304233333333,-96.9807433333333,7.9,9.9,213,984.54,4.0,76,3.06,0.0,1011.90,203.5
2018-10-18 13:50,50.6304316666667,-96.9807633333333,8.3,10.8,217,984.42,4.1,75,3.05,0.0,1011.79,203.5
2018-10-18 14:00,50.6304333333333,-96.9807616666667,8.2,10.1,215,984.39,4.3,74,3.04,0.0,1011.78,360.0
2018-10-18 14:10,50.6304316666667,-96.9807583333333,7.9,10.2,218,984.33,4.6,73,3.04,0.0,1011.68,360.0
2018-10-18 14:20,50.63043,-96.98076,6.4,8.9,219,984.34,5.3,70,3.03,0.0,1011.65,360.0
2018-10-18 14:30,50.63043,-96.98076,8.2,10.7,219,984.31,6.3,65,3.04,0.0,1011.57,360.0
2018-10-18 14:40,50.63043,-96.9807583333333,8.9,11.4,218,984.20,7.2,61,3.04,0.0,1011.41,360.0
2018-10-18 14:50,50.630425,-96.98074,8.8,11.7,221,984.21,8.0,59,3.04,0.0,1011.39,360.0
2018-10-18 15:00,50.6304283333333,-96.9807466666667,10.1,13.9,222,984.17,8.7,55,3.06,0.0,1011.30,90.0
2018-10-18 15:10,50.6304266666667,-96.980745,10.0,15.0,222,984.15,9.4,53,3.08,0.0,1011.24,90.0
2018-10-18 15:20,50.630425,-96.9807466666667,10.1,13.9,225,984.08,10.0,52,3.09,0.0,1011.14,90.0
2018-10-18 15:30,50.6304333333333,-96.9807466666667,10.4,14.0,226,984.02,10.6,50,3.11,0.0,1011.04,90.0
2018-10-18 15:40,50.6304316666667,-96.9807433333333,11.1,15.6,226,983.96,11.5,47,3.11,0.0,1010.94,90.0
2018-10-18 15:50,50.63043,-96.980745,10.5,14.7,227,983.87,12.3,45,3.11,0.0,1010.79,90.0
2018-10-18 16:00,50.63044,-96.980755,10.8,13.6,226,983.77,13.0,42,3.13,0.0,1010.64,360.0
2018-10-18 16:10,50.63042,-96.9807616666667,9.7,13.5,221,983.58,13.6,41,3.16,0.0,1010.38,360.0
2018-10-18 16:20,50.6304416666667,-96.9807583333333,9.6,12.5,221,983.46,14.2,39,3.19,0.0,1010.19,360.0
2018-10-18 16:30,50.6304266666667,-96.9807566666667,10.1,13.6,219,983.39,14.9,37,3.22,0.0,1010.03,360.0
2018-10-18 16:40,50.6304183333333,-96.9807,10.4,14.4,212,983.23,15.5,35,3.24,0.0,1009.80,360.0
2018-10-18 16:50,50.6304466666667,-96.9807283333333,10.8,14.2,213,983.15,16.3,33,3.27,0.0,1009.66,360.0
2018-10-18 17:00,50.6304316666667,-96.9807466666667,8.8,11.9,212,983.03,16.7,32,3.30,0.0,1009.48,90.0
2018-10-18 17:10,50.6304233333333,-96.980765,9.9,15.3,214,982.86,17.1,30,3.33,0.0,1009.25,90.0
2018-10-18 17:20,50.630425,-96.9807716666667,9.5,13.5,210,982.71,17.6,29,3.35,0.0,1009.05,90.0
2018-10-18 17:30,50.6304283333333,-96.9807633333333,12.9,18.0,215,982.54,18.5,27,3.37,0.0,1008.79,90.0
2018-10-18 17:40,50.6304283333333,-96.98076,13.4,20.8,219,982.28,19.0,27,3.40,0.0,1008.46,90.0
2018-10-18 17:50,50.6304283333333,-96.9807566666667,14.9,21.9,219,982.03,19.4,27,3.43,0.0,1008.16,90.0
2018-10-18 18:00,50.6304483333333,-96.9807733333333,13.6,22.4,219,981.85,19.7,27,3.47,0.0,1007.94,323.4
2018-10-18 18:10,50.63043,-96.980755,14.4,22.3,226,981.73,19.9,26,3.50,0.0,1007.77,323.4
2018-10-18 18:20,50.6304333333333,-96.98075,12.3,18.2,215,981.51,20.3,27,3.55,0.0,1007.50,323.4
2018-10-18 18:30,50.6304333333333,-96.9807483333333,14.8,21.6,212,981.37,20.2,26,3.58,0.0,1007.34,323.4
2018-10-18 18:40,50.6304316666667,-96.98075,15.6,20.2,214,981.26,20.2,26,3.62,0.0,1007.18,323.4
2018-10-18 18:50,50.63043,-96.9807483333333,14.7,22.1,216,981.08,20.1,26,3.64,0.0,1006.98,323.4
2018-10-18 19:00,50.6304283333333,-96.9807466666667,14.6,21.8,216,980.86,20.3,26,3.66,0.0,1006.73,176.8
2018-10-18 19:10,50.63043,-96.9807483333333,15.9,24.6,222,980.72,20.6,26,3.72,0.0,1006.55,176.8
2018-10-18 19:20,50.630435,-96.980795,15.1,21.9,221,980.53,20.8,26,3.80,0.0,1006.31,176.8
2018-10-18 19:30,50.63042,-96.9807433333333,16.2,22.9,220,980.38,20.9,26,3.84,0.0,1006.13,176.8
2018-10-18 19:40,50.6304166666667,-96.9807583333333,14.2,21.5,214,980.14,21.1,26,3.86,0.0,1005.86,176.8
2018-10-18 19:50,50.63042,-96.9807466666667,14.9,25.9,214,979.96,21.1,27,3.91,0.0,1005.66,176.8
2018-10-18 20:00,50.6304216666667,-96.9807466666667,15.9,25.6,219,979.91,21.4,26,3.97,0.0,1005.59,360.0
2018-10-18 20:10,50.63042,-96.9807433333333,15.0,22.3,223,979.85,21.7,25,4.01,0.0,1005.50,360.0
2018-10-18 20:20,50.6304233333333,-96.9807533333333,17.2,24.9,227,979.76,22.0,25,4.06,0.0,1005.39,360.0
2018-10-18 20:30,50.6304266666667,-96.9807533333333,17.6,24.8,224,979.66,22.2,24,4.11,0.0,1005.28,360.0
2018-10-18 20:40,50.6304283333333,-96.9807516666667,17.5,27.1,225,979.36,22.4,24,4.15,0.0,1004.97,360.0
2018-10-18 20:50,50.6304283333333,-96.9807533333333,17.4,24.2,230,979.15,22.4,24,4.19,0.0,1004.74,360.0
2018-10-18 21:00,50.6304116666667,-96.98076,16.0,22.0,223,978.89,22.4,24,4.21,0.0,1004.46,156.5
2018-10-18 21:10,50.6304216666667,-96.9807566666667,17.5,24.7,228,978.74,22.6,24,4.26,0.0,1004.29,156.5
2018-10-18 21:20,50.6304233333333,-96.9807566666667,17.0,25.8,225,978.54,22.6,24,4.32,0.0,1004.08,156.5
2018-10-18 21:30,50.630425,-96.980755,17.3,23.9,227,978.47,22.6,24,4.36,0.0,1004.00,156.5
2018-10-18 21:40,50.6304266666667,-96.9807533333333,15.3,23.2,223,978.43,22.7,24,4.34,0.0,1003.96,156.5
2018-10-18 21:50,50.630425,-96.98074,16.3,23.1,227,978.35,22.9,23,4.36,0.0,1003.85,156.5
2018-10-18 22:00,50.630425,-96.9807433333333,14.1,18.7,226,978.14,22.9,23,4.40,0.0,1003.62,90.0
2018-10-18 22:10,50.6304266666667,-96.9807466666667,15.4,23.7,226,978.03,22.9,23,4.43,0.0,1003.50,90.0
2018-10-18 22:20,50.6304283333333,-96.98075,13.1,19.8,229,978.08,23.0,23,4.44,0.0,1003.53,90.0
2018-10-18 22:30,50.6304283333333,-96.9807483333333,12.6,19.7,234,978.14,22.8,23,4.44,0.0,1003.60,90.0
2018-10-18 22:40,50.63043,-96.9807516666667,14.5,22.7,237,978.12,22.3,24,4.46,0.0,1003.60,90.0
2018-10-18 22:50,50.630395,-96.9807766666667,11.8,16.7,241,978.19,21.9,25,4.47,0.0,1003.69,90.0
2018-10-18 23:00,50.630425,-96.9807383333333,13.0,17.7,238,978.12,21.5,25,4.49,0.0,1003.63,12.6
2018-10-18 23:10,50.6304283333333,-96.9807416666667,13.0,17.4,235,978.14,21.1,26,4.48,0.0,1003.66,12.6
2018-10-18 23:20,50.63043,-96.9807466666667,13.0,19.4,237,978.19,20.7,27,4.46,0.0,1003.73,12.6
2018-10-18 23:30,50.63042,-96.9807416666667,12.0,17.6,235,978.17,20.3,27,4.44,0.0,1003.73,12.6
